Theta_e
308 308 304 299 294 299 292 296 293 299 307 317 318 317 320 321 324 325 326 333 335 339 343 345 346 349 350 354 356 358 359 359
308 307 305 301 303 292 292 288 287 293 303 303 310 314 319 320 322 324 325 326 332 336 340 344 347 349 351 358 358 360 361 362
303 299 298 297 295 296 294 292 288 288 295 312 313 316 316 318 320 321 323 325 331 332 337 342 346 348 351 357 358 358 357 359
299 306 307 303 299 297 291 290 293 293 295 316 316 319 317 320 322 324 326 326 327 332 336 339 340 344 345 348 353 353 352 353
294 299 303 298 300 298 297 294 292 290 295 314 314 316 320 320 324 326 326 325 327 335 336 339 341 344 346 347 349 351 353 354
293 296 300 299 302 301 297 291 292 295 298 309 313 316 318 319 323 326 326 326 326 335 338 342 348 349 349 349 349 349 353 351
302 304 303 302 302 302 299 299 295 299 298 308 314 316 318 319 326 329 328 327 330 332 339 345 349 350 349 349 350 352 349 348
303 307 304 302 303 304 303 302 302 301 300 315 315 317 318 318 324 324 330 331 333 340 343 348 350 351 351 351 353 355 349 349
296 305 306 301 301 303 302 304 302 299 302 315 314 316 317 319 326 325 325 330 339 343 346 350 353 354 353 356 355 355 352 352
298 302 293 306 311 311 308 308 308 306 307 317 315 318 322 326 334 335 335 336 336 340 346 351 355 356 357 360 355 354 354 354
296 296 302 307 312 309 305 306 312 310 312 312 320 322 319 331 338 338 335 332 332 336 346 352 355 357 360 358 356 355 353 353
300 295 295 305 312 315 312 300 312 314 314 310 319 308 323 338 341 341 339 337 335 343 352 353 356 361 359 357 356 354 355 354
301 298 303 312 313 318 300 301 315 318 321 317 319 324 334 339 339 341 341 343 344 346 347 349 352 361 359 359 357 359 358 357
303 300 297 316 312 305 310 314 317 321 323 324 331 335 335 336 336 337 338 341 346 348 348 349 354 355 353 354 358 358 358 357
304 303 312 315 314 317 319 319 322 322 322 334 334 333 335 334 335 336 337 338 345 344 341 342 344 348 347 348 352 355 357 354
308 311 314 317 320 320 322 321 326 328 325 326 331 335 334 334 335 336 337 339 341 344 341 344 346 346 344 348 350 348 350 349
307 312 314 317 321 320 321 323 325 326 324 327 324 332 334 334 333 334 334 339 340 340 342 341 343 342 344 344 343 343 344 345
306 315 314 314 320 321 322 322 323 322 320 321 327 335 335 335 336 336 337 338 337 337 339 342 344 343 341 341 341 338 338 339
314 320 318 319 320 326 322 325 325 325 323 322 332 338 338 336 336 335 338 337 337 337 338 340 339 338 339 339 338 336 334 336
Wind_Speed
13 17 10 10 6 10 5 10 5 3 5 2 8 8 13 9 12 15 15 19 18 16 16 15 15 17 19 19 17 17 16 12
16 10 9 11 8 4 5 4 7 6 2 6 10 16 17 24 17 15 14 13 15 15 13 13 13 10 14 16 17 16 15 12
7 4 11 3 4 5 2 4 6 4 8 7 10 11 9 10 14 12 8 11 15 9 10 13 12 11 12 13 14 13 11 11
13 11 8 8 12 10 6 11 5 6 9 8 9 13 6 6 4 9 13 11 10 10 11 13 11 12 11 11 13 12 9 8
9 9 10 6 7 9 5 4 10 4 9 5 2 11 13 22 27 10 10 10 10 10 9 10 9 10 11 9 10 11 9 8
6 8 8 11 9 8 8 4 6 9 6 5 3 4 3 13 22 8 9 10 8 10 9 9 8 10 9 9 9 8 10 8
11 11 15 15 15 10 11 12 10 13 8 10 2 3 2 15 11 9 9 9 9 9 10 9 9 8 8 8 8 7 8 8
8 12 14 21 16 16 14 8 12 9 12 10 6 9 12 10 5 9 9 9 9 12 13 13 12 9 8 8 7 6 7 7
7 8 16 11 11 11 10 12 6 11 7 11 11 13 12 6 1 7 8 8 6 13 14 12 12 11 8 8 7 7 7 6
7 6 5 9 10 9 12 15 15 12 7 17 13 15 9 12 12 6 7 8 7 4 7 10 11 10 9 8 8 7 7 5
1 4 10 16 14 6 5 17 18 10 19 11 11 16 15 24 18 7 6 5 4 2 7 7 12 11 11 8 9 8 7 6
0 1 6 8 12 4 6 9 10 19 23 10 9 5 5 15 13 8 7 3 6 7 7 9 7 10 11 9 9 9 9 9
6 5 7 8 18 13 1 10 26 19 20 24 13 9 12 16 11 8 6 10 9 10 11 9 7 8 11 11 12 13 11 10
3 8 15 13 9 4 13 24 20 22 21 22 19 21 17 19 10 9 8 10 10 11 11 11 11 10 8 6 3 6 8 8
8 7 5 4 8 4 11 10 11 8 15 10 23 22 20 16 14 10 10 7 8 11 10 8 8 8 9 6 7 7 4 4
2 8 19 14 1 6 1 10 10 3 11 15 14 17 15 15 14 10 8 7 7 9 8 7 7 8 6 6 6 7 7 7
5 9 11 14 9 4 7 11 9 9 19 35 35 15 15 13 11 8 7 8 8 8 7 7 7 7 6 6 6 6 7 4
4 9 4 8 12 12 7 8 8 10 18 38 30 14 16 13 9 8 8 6 7 7 7 7 8 7 6 7 6 6 6 4
6 12 4 13 9 8 15 9 11 13 24 40 25 10 14 12 7 10 8 8 8 8 7 7 7 7 5 6 5 4 4 4
Wind_Direction
214 228 174 243 276 239 262 276 307 227 305 240 233 352 335 270 176 177 170 178 183 181 184 183 180 179 183 179 186 187 192 192
285 220 220 160 216 305 322 247 281 287 201 235 182 194 207 259 185 187 183 172 170 180 174 169 166 158 169 168 176 180 184 189
308 266 198 206 232 267 181 174 209 245 259 209 221 232 225 267 175 183 174 154 166 160 148 155 149 145 143 152 160 169 175 184
244 273 264 214 192 192 148 278 232 183 264 236 231 208 157 356 22 113 119 121 132 146 142 151 146 150 151 148 158 166 166 165
313 329 325 255 233 208 209 214 249 189 279 213 248 93 128 163 284 143 137 134 126 122 138 140 139 144 151 145 150 160 168 164
246 229 241 293 275 220 201 220 246 248 191 290 179 116 208 213 204 156 146 146 139 139 141 137 139 144 142 147 152 159 157 163
279 282 291 286 281 264 219 225 224 261 268 205 141 45 23 313 160 141 136 144 145 151 149 141 139 139 142 148 156 152 160 165
316 313 309 304 292 291 282 246 231 243 268 165 172 95 331 289 115 149 165 177 157 162 154 150 153 152 150 152 156 145 166 167
273 318 340 317 273 284 285 279 241 231 208 186 186 159 184 254 86 108 102 92 136 161 159 153 152 148 152 151 151 146 158 158
263 352 253 252 311 301 304 302 306 321 189 191 188 172 133 97 347 51 85 74 64 135 164 156 150 150 145 141 144 141 149 143
210 254 290 309 290 339 15 301 307 304 306 183 166 129 159 159 181 143 83 75 67 7 170 152 149 152 152 143 146 145 159 167
279 208 282 300 308 4 328 283 328 356 333 318 164 114 184 125 115 110 105 104 98 34 69 111 133 144 145 152 153 165 175 182
246 254 255 12 332 324 94 308 332 341 314 322 207 171 152 125 111 128 123 89 78 69 68 60 56 130 151 160 176 183 183 179
205 217 249 25 6 40 311 306 305 316 315 288 131 133 129 120 122 108 98 91 79 73 63 47 44 70 63 57 274 185 175 163
182 231 290 265 218 257 282 272 287 318 349 277 135 132 137 141 130 120 104 86 95 94 79 57 53 63 67 31 28 42 120 157
69 254 246 257 202 67 37 276 294 332 336 323 289 129 127 120 112 106 107 112 90 104 102 85 76 59 67 55 57 54 65 73
281 307 311 294 298 349 291 278 245 60 7 299 283 108 102 88 82 93 88 84 84 100 113 115 99 83 62 65 55 63 70 80
235 286 249 286 286 290 236 127 79 95 241 271 294 92 91 87 81 72 82 105 96 89 100 94 102 95 81 67 61 58 54 49
239 242 219 256 294 295 261 130 163 152 223 261 266 104 96 92 92 96 79 72 79 79 66 88 107 103 82 85 70 69 68 35